User: anonymous
Location: Donald C. Martin Observatory
(38.3885°N, 82.3916°W)
Time: 09:27:26
(UTC-04:00)
Language:

Cosmos 1484 Rocket - Orbit

View from above orbital plane
View from above orbital plane
View from above satellite
View from above satellite

Ground track
Ground track

The orbit data is extracted from the following two-line orbital elements,

1 14208U 83075B   14258.74896759  .00001691  00000-0  11418-3 0  1136
2 14208 097.4179 292.3790 0041770 354.9473 005.1328 15.07220577695847
Epoch (UTC): 15 September 2014 17:58:30
Eccentricity: 0.0041770
inclination: 97.4179°
perigee height: 516 km
apogee height: 573 km
right ascension of ascending node: 292.3790°
argument of perigee: 354.9473°
revolutions per day: 15.07220577
mean anomaly at epoch: 5.1328°
orbit number at epoch: 69584

The dashed part of the orbit path shows where the satellite is in the earth's shadow,  

DLR